Weather History for Honolulu, HI

Change the Weather History Date:

Tuesday, November 1, 2011

  Actual Average Record
Temperature  
Mean Temperature 78 °F 79 °F  
Max Temperature 84 °F 85 °F 91 °F (1995)
Min Temperature 72 °F 73 °F 64 °F (1962)
Degree Days  
Heating Degree Days 0 0  
Month to date heating degree days 0 0  
Since 1 July heating degree days 0 0  
Cooling Degree Days 13 14  
Month to date cooling degree days 13 14  
Year to date cooling degree days 4183 3960  
Growing Degree Days 27 (Base 50)    
Moisture  
Dew Point 71 °F    
Average Humidity 79    
Maximum Humidity 93    
Minimum Humidity 65    
Precipitation  
Precipitation 0.73 in 0.08 in 0.73 in (2011)
Month to date precipitation 0.73 0.08  
Year to date precipitation 14.38 11.52  
Snow  
Snow 0.00 in - - ()
Month to date snowfall 0.0  
Since 1 July snowfall 0.0  
Since 1 September snowfall 0.0  
Snow Depth 0.00 in    
Sea Level Pressure  
Sea Level Pressure 29.99 in    
Wind  
Wind Speed 4 mph (NE)    
Max Wind Speed 24 mph    
Max Gust Speed 28 mph    
Visibility 9 miles    
Events Rain    
T = Trace of Precipitation, MM = Missing Value Source: NWS Daily Summary

Daily Weather History Graph

Daily Weather History Graph

Search for Another Location

Airport:

Trip Planner

Search our weather history database for the weather conditions in past years. The results will help you decide how hot, cold, wet, or windy it might be!

Date:

Astronomy

Nov. 01, 2011 Rise Set
Actual Time 6:34 AM HST 5:55 PM HST
Civil Twilight 6:11 AM HST 6:18 PM HST
Nautical Twilight 5:45 AM HST 6:44 PM HST
Astronomical Twilight 5:19 AM HST 7:10 PM HST
Moon 12:21 PM HST (11/1) 11:53 PM HST (11/1)
Length of Visible Light 12h 06m
Length of Day
11h 20m
Waxing Crescent, 42% of the Moon is Illuminated
Nov 1
Waxing Crescent
Nov 2
First Quarter
Nov 10
Full
Nov 18
Last Quarter
Nov 24
New

Hourly Weather History & Observations

Time (HST) Temp. Heat Index Dew Point Humidity Pressure Visibility Wind Dir Wind Speed Gust Speed Precip Events Conditions
12:53 AM 75.0 °F - 70.0 °F 84% 29.98 in 10.0 mi NNW 4.6 mph - N/A   Partly Cloudy
1:53 AM 75.0 °F - 69.1 °F 82% 29.97 in 10.0 mi Calm Calm - N/A   Scattered Clouds
2:53 AM 73.9 °F - 70.0 °F 87% 29.95 in 10.0 mi NW 3.5 mph - 0.00 in   Scattered Clouds
3:53 AM 73.0 °F - 70.0 °F 90% 29.95 in 10.0 mi Calm Calm - N/A   Partly Cloudy
4:53 AM 73.9 °F - 70.0 °F 87% 29.95 in 8.0 mi Calm Calm - 0.00 in Rain Light Rain
5:53 AM 73.0 °F - 71.1 °F 93% 29.96 in 10.0 mi North 3.5 mph - 0.00 in   Mostly Cloudy
6:53 AM 72.0 °F - 70.0 °F 93% 29.99 in 10.0 mi North 5.8 mph - 0.06 in Rain Light Rain
7:53 AM 73.0 °F - 71.1 °F 93% 30.00 in 10.0 mi Variable 4.6 mph - 0.00 in   Mostly Cloudy
8:53 AM 79.0 °F - 71.1 °F 77% 30.01 in 10.0 mi NNW 3.5 mph - 0.00 in   Scattered Clouds
9:53 AM 80.1 °F 83.6 °F 71.1 °F 74% 30.01 in 10.0 mi South 4.6 mph - N/A   Scattered Clouds
10:33 AM 78.8 °F - 71.6 °F 78% 30.03 in 1.5 mi NNE 8.1 mph - 0.01 in Rain Rain
10:51 AM 73.4 °F - 71.6 °F 94% 30.02 in 7.0 mi NNW 9.2 mph - 0.63 in Rain Light Rain
10:52 AM 73.9 °F - 72.0 °F 93% 30.02 in 7.0 mi NNW 8.1 mph - 0.63 in Rain Light Rain
11:53 AM 81.0 °F 86.2 °F 73.9 °F 79% 30.00 in 10.0 mi North 8.1 mph - 0.01 in   Mostly Cloudy
12:53 PM 80.1 °F 84.2 °F 73.0 °F 79% 29.97 in 10.0 mi Calm Calm - 0.00 in   Scattered Clouds
1:53 PM 82.9 °F 87.0 °F 70.0 °F 65% 29.94 in 10.0 mi East 9.2 mph - 0.00 in   Scattered Clouds
2:15 PM 82.4 °F 87.2 °F 71.6 °F 70% 29.95 in 6.0 mi East 23.0 mph 27.6 mph 0.00 in Rain Light Rain
2:21 PM 78.8 °F - 73.4 °F 83% 29.95 in 7.0 mi East 9.2 mph 27.6 mph 0.02 in Rain Rain
2:53 PM 81.0 °F 85.2 °F 72.0 °F 74% 29.94 in 10.0 mi East 8.1 mph - 0.03 in   Scattered Clouds
3:53 PM 81.0 °F 84.1 °F 69.1 °F 67% 29.95 in 10.0 mi ENE 13.8 mph 23.0 mph N/A   Mostly Cloudy
4:53 PM 81.0 °F 84.1 °F 69.1 °F 67% 29.96 in 10.0 mi ENE 11.5 mph - N/A   Mostly Cloudy
5:53 PM 79.0 °F - 69.1 °F 72% 29.98 in 10.0 mi ENE 10.4 mph - N/A   Scattered Clouds
6:53 PM 77.0 °F - 70.0 °F 79% 30.00 in 10.0 mi East 8.1 mph - N/A   Scattered Clouds
7:53 PM 77.0 °F - 69.1 °F 76% 30.01 in 10.0 mi NE 4.6 mph - N/A   Scattered Clouds
8:53 PM 77.0 °F - 69.1 °F 76% 30.03 in 10.0 mi ENE 15.0 mph - N/A   Scattered Clouds
9:53 PM 77.0 °F - 69.1 °F 76% 30.04 in 10.0 mi NE 10.4 mph - N/A   Scattered Clouds
10:53 PM 77.0 °F - 69.1 °F 76% 30.03 in 10.0 mi ENE 11.5 mph - N/A   Scattered Clouds
11:53 PM 77.0 °F - 69.1 °F 76% 30.02 in 10.0 mi NE 11.5 mph 20.7 mph 0.00 in   Mostly Cloudy